Location: El Mouella
(16.4949°N, 9.1594°W)
Time: 17:20:57
(UTC+00:00)

STARLINK-1129 - Pass Details

Date: 02 June 2020
Orbit: 549 x 550 km, 53.0° (Epoch: 04 July)

Event Time Altitude Azimuth Distance (km) Brightness Sun altitude
Rises 20:07:27 0° 325° (NW) 2,715 8.4 -13.9°
Reaches altitude 10° 20:09:41 10° 327° (NNW) 1,821 7.3 -14.4°
Maximum altitude 20:13:50 79° 53° (NE) 564 3.5 -15.3°
Enters shadow 20:15:56 28° 137° (SE) 1,045 4.5 -15.7°
